Weaverville, CA

7:54 AM PDT on April 25, 2017 (GMT -0700)
Weaverville

Weather History for KO54 - March, 2014

Change the Weather History Date:

Saturday, March 29, 2014

  Actual Average (KRDD) Record (KRDD)
Temperature  
Mean Temperature 44 °F -  
Max Temperature 50 °F 65 °F 88 °F (2015)
Min Temperature 39 °F 43 °F 33 °F (1996)
Degree Days  
Heating Degree Days 20    
Moisture  
Dew Point 38 °F    
Average Humidity 77    
Maximum Humidity 100    
Minimum Humidity 50    
Precipitation  
Precipitation 0.19 in - - ()
Sea Level Pressure  
Sea Level Pressure 29.96 in    
Wind  
Wind Speed 4 mph (SSW)    
Max Wind Speed 13 mph    
Max Gust Speed 21 mph    
Visibility 9 miles    
Events      
Averages and records for this station are not official NWS values.
T = Trace of Precipitation, MM = Missing Value Source: NWS Daily Summary

Daily Weather History Graph

Daily Weather History Graph

Search for Another Location

Airport or City:

Trip Planner

Search our weather history database for the weather conditions in past years. The results will help you decide how hot, cold, wet, or windy it might be!

Date:

Astronomy

Mar. 29, 2014 Rise Set
Actual Time 6:59 AM PDT 7:33 PM PDT
Civil Twilight 6:32 AM PDT 8:00 PM PDT
Nautical Twilight 6:00 AM PDT 8:33 PM PDT
Astronomical Twilight 5:26 AM PDT 9:07 PM PDT
Moon 6:12 AM PDT (3/29) 6:44 PM PDT (3/29)
Length of Visible Light 13h 28m
Length of Day
12h 33m
Waning Crescent, 1% of the Moon is Illuminated
Mar 29
Waning Crescent
Mar 30
New
Apr 7
First Quarter
Apr 15
Full
Apr 22
Last Quarter

Hourly Weather History & Observations

Time (PDT) Temp. Windchill Dew Point Humidity Pressure Visibility Wind Dir Wind Speed Gust Speed Precip Events Conditions
12:15 AM 46.4 °F - 44.6 °F 93% 29.95 in 5.0 mi Calm Calm - 0.02 in   Overcast
12:35 AM 46.4 °F - 44.6 °F 93% 29.95 in 3.0 mi Calm Calm - 0.03 in   Overcast
12:55 AM 46.4 °F - 44.6 °F 93% 29.95 in 5.0 mi Calm Calm - 0.04 in   Overcast
1:15 AM 46.4 °F - 44.6 °F 93% 29.94 in 7.0 mi Calm Calm - N/A   Overcast
1:35 AM 46.4 °F - 44.6 °F 93% 29.95 in 7.0 mi Calm Calm - N/A   Overcast
1:55 AM 46.4 °F - 44.6 °F 93% 29.95 in 3.0 mi Calm Calm - 0.03 in   Overcast
2:15 AM 46.4 °F - 44.6 °F 93% 29.95 in 3.0 mi Calm Calm - N/A   Overcast
2:35 AM 46.4 °F 45.2 °F 46.4 °F 100% 29.95 in 5.0 mi North 3.5 mph - 0.03 in   Overcast
2:55 AM 46.4 °F - 44.6 °F 93% 29.95 in 9.0 mi Calm Calm - 0.06 in   Overcast
3:15 AM 46.4 °F - 44.6 °F 93% 29.94 in 7.0 mi Calm Calm - N/A   Overcast
3:35 AM 46.4 °F - 44.6 °F 93% 29.94 in 5.0 mi Calm Calm - 0.02 in   Overcast
3:55 AM 46.4 °F 43.5 °F 44.6 °F 93% 29.94 in 3.0 mi South 5.8 mph - 0.03 in   Overcast
4:15 AM 46.4 °F 45.2 °F 44.6 °F 93% 29.95 in 8.0 mi South 3.5 mph - 0.01 in   Overcast
4:35 AM 44.6 °F 43.1 °F 42.8 °F 93% 29.95 in 5.0 mi SSE 3.5 mph - 0.02 in   Overcast
4:55 AM 44.6 °F 43.1 °F 42.8 °F 93% 29.95 in 10.0 mi SW 3.5 mph - 0.02 in   Overcast
5:15 AM 44.6 °F 43.1 °F 42.8 °F 93% 29.96 in 10.0 mi SSE 3.5 mph - N/A   Overcast
5:35 AM 44.6 °F 43.1 °F 42.8 °F 93% 29.95 in 10.0 mi SE 3.5 mph - N/A   Overcast
5:55 AM 44.6 °F 43.1 °F 41.0 °F 87% 29.96 in 10.0 mi South 3.5 mph - N/A   Overcast
6:15 AM 44.6 °F - 41.0 °F 87% 29.96 in 10.0 mi Calm Calm - N/A   Overcast
6:35 AM 44.6 °F 43.1 °F 41.0 °F 87% 29.96 in 10.0 mi SE 3.5 mph - N/A   Overcast
6:55 AM 44.6 °F 43.1 °F 41.0 °F 87% 29.96 in 10.0 mi South 3.5 mph - N/A   Overcast
7:15 AM 44.6 °F 41.4 °F 41.0 °F 87% 29.97 in 9.0 mi South 5.8 mph - N/A   Mostly Cloudy
7:35 AM 44.6 °F 40.7 °F 41.0 °F 87% 29.97 in 10.0 mi South 6.9 mph - N/A   Mostly Cloudy
7:55 AM 44.6 °F 43.1 °F 41.0 °F 87% 29.97 in 9.0 mi SSE 3.5 mph - N/A   Partly Cloudy
8:15 AM 44.6 °F 43.1 °F 41.0 °F 87% 29.97 in 10.0 mi South 3.5 mph - N/A   Clear
8:35 AM 46.4 °F 44.3 °F 37.4 °F 71% 29.97 in 10.0 mi South 4.6 mph - N/A   Clear
8:55 AM 46.4 °F 43.5 °F 39.2 °F 76% 29.97 in 10.0 mi South 5.8 mph - N/A   Clear
9:15 AM 46.4 °F 42.4 °F 39.2 °F 76% 29.97 in 10.0 mi South 8.1 mph - N/A   Clear
9:35 AM 46.4 °F 42.4 °F 39.2 °F 76% 29.97 in 10.0 mi SSW 8.1 mph - N/A   Clear
9:55 AM 46.4 °F 41.9 °F 37.4 °F 71% 29.98 in 10.0 mi SSW 9.2 mph - N/A   Clear
10:15 AM 46.4 °F 41.9 °F 37.4 °F 71% 29.98 in 10.0 mi SSW 9.2 mph 17.3 mph 0.01 in   Mostly Cloudy
10:35 AM 46.4 °F 41.5 °F 37.4 °F 71% 29.98 in 10.0 mi SSW 10.4 mph 17.3 mph 0.01 in   Scattered Clouds
10:55 AM 48.2 °F - 39.2 °F 71% 29.99 in 10.0 mi SSW 9.2 mph - 0.01 in   Mostly Cloudy
11:15 AM 46.4 °F 42.4 °F 37.4 °F 71% 30.00 in 10.0 mi SSW 8.1 mph 17.3 mph N/A   Mostly Cloudy
11:35 AM 46.4 °F 42.4 °F 37.4 °F 71% 30.01 in 10.0 mi WSW 8.1 mph 17.3 mph N/A   Mostly Cloudy
11:55 AM 48.2 °F - 35.6 °F 62% 30.01 in 10.0 mi West 9.2 mph - N/A   Mostly Cloudy
12:15 PM 50.0 °F - 35.6 °F 58% 30.00 in 10.0 mi WNW 6.9 mph - N/A   Scattered Clouds
12:35 PM 50.0 °F - 35.6 °F 58% 30.00 in 10.0 mi SW 9.2 mph - N/A   Partly Cloudy
12:55 PM 50.0 °F - 35.6 °F 58% 29.99 in 10.0 mi SW 10.4 mph 16.1 mph N/A   Partly Cloudy
1:15 PM 50.0 °F - 33.8 °F 54% 29.98 in 10.0 mi SSW 8.1 mph 16.1 mph N/A   Scattered Clouds
1:35 PM 50.0 °F - 33.8 °F 54% 29.97 in 10.0 mi SSW 11.5 mph 17.3 mph N/A   Overcast
1:55 PM 50.0 °F - 35.6 °F 58% 29.97 in 10.0 mi West 9.2 mph 16.1 mph N/A   Mostly Cloudy
2:15 PM 50.0 °F - 35.6 °F 58% 29.98 in 10.0 mi SW 9.2 mph 18.4 mph N/A   Mostly Cloudy
2:35 PM 50.0 °F - 35.6 °F 58% 29.97 in 10.0 mi SW 8.1 mph - N/A   Mostly Cloudy
2:55 PM 50.0 °F - 35.6 °F 58% 29.97 in 10.0 mi SW 5.8 mph - N/A   Partly Cloudy
3:15 PM 50.0 °F - 33.8 °F 54% 29.96 in 10.0 mi WSW 9.2 mph - N/A   Clear
3:35 PM 50.0 °F - 33.8 °F 54% 29.95 in 10.0 mi West 4.6 mph - N/A   Clear
3:55 PM 50.0 °F - 32.0 °F 50% 29.95 in 10.0 mi SW 5.8 mph - N/A   Clear
4:15 PM 50.0 °F - 32.0 °F 50% 29.94 in 10.0 mi SSW 5.8 mph - N/A   Partly Cloudy
4:35 PM 50.0 °F - 33.8 °F 54% 29.94 in 10.0 mi West 5.8 mph - N/A   Mostly Cloudy
4:55 PM 48.2 °F - 33.8 °F 58% 29.93 in 10.0 mi West 5.8 mph - N/A   Mostly Cloudy
5:15 PM 48.2 °F - 35.6 °F 62% 29.93 in 10.0 mi WSW 12.7 mph 17.3 mph N/A   Mostly Cloudy
5:35 PM 48.2 °F - 35.6 °F 62% 29.93 in 10.0 mi NW 6.9 mph - N/A   Mostly Cloudy
5:55 PM 48.2 °F - 35.6 °F 62% 29.94 in 10.0 mi NW 10.4 mph - N/A   Mostly Cloudy
6:15 PM 44.6 °F 39.2 °F 37.4 °F 76% 29.94 in 9.0 mi WNW 10.4 mph 16.1 mph N/A   Scattered Clouds
6:35 PM 44.6 °F 40.7 °F 37.4 °F 76% 29.94 in 9.0 mi WSW 6.9 mph 20.7 mph N/A   Partly Cloudy
6:55 PM 44.6 °F 40.7 °F 33.8 °F 66% 29.95 in 10.0 mi NW 6.9 mph - N/A   Partly Cloudy
7:15 PM 42.8 °F 39.3 °F 35.6 °F 76% 29.95 in 10.0 mi SSW 5.8 mph - N/A   Mostly Cloudy
7:35 PM 41.0 °F 37.1 °F 35.6 °F 81% 29.96 in 7.0 mi South 5.8 mph - N/A   Overcast
7:55 PM 41.0 °F 38.0 °F 37.4 °F 87% 29.95 in 10.0 mi SSE 4.6 mph - N/A   Overcast
8:15 PM 41.0 °F 37.1 °F 35.6 °F 81% 29.96 in 10.0 mi SSW 5.8 mph - N/A   Overcast
8:35 PM 41.0 °F 38.0 °F 35.6 °F 81% 29.96 in 10.0 mi South 4.6 mph - N/A   Overcast
8:55 PM 41.0 °F 39.0 °F 35.6 °F 81% 29.96 in 10.0 mi South 3.5 mph - N/A   Mostly Cloudy
9:15 PM 41.0 °F 36.4 °F 35.6 °F 81% 29.96 in 10.0 mi SSW 6.9 mph - N/A   Mostly Cloudy
9:35 PM 41.0 °F 35.8 °F 35.6 °F 81% 29.97 in 10.0 mi SSW 8.1 mph - N/A   Mostly Cloudy
9:55 PM 41.0 °F 35.2 °F 35.6 °F 81% 29.96 in 10.0 mi SSW 9.2 mph - N/A   Mostly Cloudy
10:15 PM 41.0 °F 35.2 °F 35.6 °F 81% 29.96 in 10.0 mi South 9.2 mph - N/A   Mostly Cloudy
10:35 PM 41.0 °F 35.2 °F 35.6 °F 81% 29.96 in 10.0 mi South 9.2 mph - N/A   Mostly Cloudy
10:55 PM 39.2 °F 33.0 °F 35.6 °F 87% 29.96 in 10.0 mi SSW 9.2 mph - N/A   Mostly Cloudy
11:15 PM 39.2 °F 34.2 °F 35.6 °F 87% 29.96 in 10.0 mi South 6.9 mph 17.3 mph N/A   Mostly Cloudy
11:35 PM 39.2 °F 34.2 °F 35.6 °F 87% 29.96 in 10.0 mi South 6.9 mph - N/A   Mostly Cloudy
11:55 PM 39.2 °F 33.0 °F 35.6 °F 87% 29.96 in 10.0 mi SSW 9.2 mph - N/A   Mostly Cloudy